| time (UTC) | temp F | wind direction | speed MPH | gust MPH | rain 1hr in | rain 24hr in | rain mn in | humidity % | barometer mb |
| 20260504214003 | 74 | 196 | 5.0 | 9.0 | 0.00 | 0.00 | 0.00 | 44 | 1016.7 |
| 20260504213003 | 75 | 222 | 5.0 | 9.0 | 0.00 | 0.00 | 0.00 | 45 | 1016.6 |
| 20260504212002 | 75 | 252 | 3.0 | 8.0 | 0.00 | 0.00 | 0.00 | 47 | 1016.6 |
| 20260504211002 | 75 | 215 | 4.0 | 10.0 | 0.00 | 0.00 | 0.00 | 45 | 1016.6 |
| 20260504210003 | 75 | 209 | 3.0 | 8.0 | 0.00 | 0.00 | 0.00 | 44 | 1016.7 |
| 20260504205003 | 75 | 215 | 5.0 | 12.0 | 0.00 | 0.00 | 0.00 | 45 | 1016.6 |
| 20260504204002 | 75 | 204 | 3.0 | 8.0 | 0.00 | 0.00 | 0.00 | 47 | 1016.8 |
| 20260504203002 | 76 | 203 | 6.0 | 12.0 | 0.00 | 0.00 | 0.00 | 42 | 1016.9 |
| 20260504202002 | 75 | 246 | 6.0 | 9.0 | 0.00 | 0.00 | 0.00 | 44 | 1017.0 |
| 20260504201002 | 74 | 244 | 6.0 | 12.0 | 0.00 | 0.00 | 0.00 | 45 | 1017.1 |
| 20260504200003 | 74 | 167 | 4.0 | 12.0 | 0.00 | 0.00 | 0.00 | 45 | 1017.2 |
| 20260504195002 | 74 | 214 | 6.0 | 9.0 | 0.00 | 0.00 | 0.00 | 45 | 1017.3 |
| 20260504193003 | 74 | 230 | 5.0 | 12.0 | 0.00 | 0.00 | 0.00 | 50 | 1017.4 |
| 20260504192003 | 75 | 208 | 5.0 | 8.0 | 0.00 | 0.00 | 0.00 | 48 | 1017.6 |
| 20260504191002 | 74 | 197 | 3.0 | 12.0 | 0.00 | 0.00 | 0.00 | 50 | 1017.6 |
| 20260504190002 | 74 | 224 | 5.0 | 10.0 | 0.00 | 0.00 | 0.00 | 48 | 1017.7 |
| 20260504185003 | 74 | 219 | 6.0 | 9.0 | 0.00 | 0.00 | 0.00 | 47 | 1017.8 |
| 20260504184003 | 74 | 220 | 4.0 | 8.0 | 0.00 | 0.00 | 0.00 | 49 | 1018.0 |
| 20260504183002 | 74 | 207 | 6.0 | 10.0 | 0.00 | 0.00 | 0.00 | 46 | 1018.1 |
| 20260504182002 | 74 | 202 | 3.0 | 15.0 | 0.00 | 0.00 | 0.00 | 46 | 1018.2 |
| 20260504181002 | 73 | 215 | 5.0 | 12.0 | 0.00 | 0.00 | 0.00 | 47 | 1018.4 |
| 20260504180002 | 73 | 226 | 8.0 | 13.0 | 0.00 | 0.00 | 0.00 | 43 | 1018.5 |
| 20260504175002 | 72 | 218 | 4.0 | 12.0 | 0.00 | 0.00 | 0.00 | 49 | 1018.6 |
| 20260504174002 | 72 | 257 | 5.0 | 8.0 | 0.00 | 0.00 | 0.00 | 47 | 1018.8 |
| 20260504151003 | 65 | 262 | 5.0 | 12.0 | 0.00 | 0.00 | 0.00 | 55 | 1020.4 |
| 20260504141002 | 62 | 277 | 5.0 | 12.0 | 0.00 | 0.00 | 0.00 | 57 | 1020.6 |
| 20260504031003 | 49 | 222 | 0.0 | 0.0 | 0.00 | 0.00 | 0.00 | 73 | 1021.1 |
| 20260504030003 | 49 | 222 | 0.0 | 0.0 | 0.00 | 0.00 | 0.00 | 73 | 1021.2 |
| 20260504025003 | 49 | 222 | 0.0 | 0.0 | 0.00 | 0.00 | 0.00 | 73 | 1021.1 |
| 20260504024002 | 49 | 222 | 0.0 | 0.0 | 0.00 | 0.00 | 0.00 | 72 | 1021.1 |
| 20260504023003 | 50 | 222 | 0.0 | 0.0 | 0.00 | 0.00 | 0.00 | 72 | 1021.0 |
| 20260504022003 | 50 | 222 | 0.0 | 0.0 | 0.00 | 0.00 | 0.00 | 71 | 1020.8 |
| 20260504021003 | 51 | 222 | 0.0 | 0.0 | 0.00 | 0.00 | 0.00 | 68 | 1020.7 |